Total_Precipitation_Accumulation
1.92 2.25 2.72 3.10 3.53 3.60 3.69 3.67 3.76 3.95 4.11 4.26 4.21 4.32 4.28 4.23 4.42 4.58 4.62 4.75 4.82 4.64 4.59 4.48 4.36 4.13 3.87 3.70 3.55 3.40 3.24 2.99 2.89 2.75 2.48 2.12 1.88 1.91 1.90 1.84 1.92 1.98 1.94
2.12 2.29 2.76 3.15 3.52 3.76 3.85 3.99 4.10 4.09 4.22 4.65 5.06 5.35 5.61 5.60 5.51 5.59 5.61 5.45 5.31 5.23 5.08 5.00 4.75 4.40 4.14 3.83 3.59 3.41 3.14 2.89 2.84 2.84 2.89 2.50 2.15 1.77 1.54 1.57 1.61 1.64 1.65
2.36 2.21 2.34 2.76 3.20 3.54 3.76 3.87 4.11 4.43 4.92 5.50 5.93 6.23 6.49 6.54 6.32 6.09 5.97 5.69 5.45 5.32 5.02 4.79 4.66 4.36 3.95 3.69 3.53 3.35 3.14 2.90 2.80 2.74 2.90 2.74 2.38 1.97 1.71 1.52 1.42 1.47 1.56
2.10 2.23 2.26 2.50 2.86 3.16 3.47 3.78 4.08 4.65 5.51 6.15 6.59 6.94 7.01 6.93 6.76 6.53 6.15 5.64 5.26 4.94 4.67 4.43 4.15 3.88 3.54 3.30 3.11 3.04 3.00 2.89 2.70 2.64 2.47 2.30 2.18 2.17 1.93 1.70 1.58 1.55 1.57
1.82 1.92 2.01 2.19 2.58 2.94 3.24 3.61 3.99 4.64 5.31 5.92 6.50 6.91 7.00 6.90 6.68 6.22 5.70 5.13 4.66 4.25 3.91 3.66 3.42 3.19 2.91 2.70 2.50 2.47 2.58 2.62 2.54 2.51 2.46 2.35 2.26 2.17 2.03 1.86 1.81 1.78 1.67
1.91 1.86 1.83 1.91 2.15 2.52 2.84 3.27 3.67 4.19 4.79 5.17 5.67 6.04 6.19 6.06 5.68 5.16 4.55 4.13 3.82 3.52 3.19 2.92 2.69 2.44 2.22 2.07 1.99 1.94 1.99 2.13 2.20 2.25 2.26 2.25 2.33 2.31 2.27 2.11 2.00 1.95 1.82
2.07 1.92 1.85 1.85 1.98 2.24 2.54 2.81 3.05 3.48 3.81 4.14 4.57 4.83 4.81 4.60 4.33 4.05 3.80 3.38 2.98 2.64 2.39 2.15 1.93 1.73 1.65 1.62 1.64 1.66 1.70 1.75 1.82 1.93 2.02 2.07 2.10 2.12 2.26 2.36 2.23 2.06 1.83
1.87 1.80 1.78 1.87 1.94 1.94 2.13 2.31 2.40 2.63 2.84 3.01 3.19 3.20 3.16 3.09 3.05 2.91 2.65 2.35 2.03 1.73 1.60 1.51 1.36 1.28 1.27 1.23 1.31 1.39 1.46 1.50 1.52 1.54 1.72 1.85 1.82 1.76 1.86 2.09 2.15 2.10 1.91
1.66 1.69 1.76 1.84 1.86 1.80 1.79 1.88 1.90 1.91 1.98 2.03 2.14 2.16 2.11 2.11 2.09 2.02 1.87 1.68 1.56 1.37 1.23 1.20 1.15 1.11 1.12 1.12 1.15 1.15 1.14 1.24 1.34 1.35 1.43 1.54 1.54 1.48 1.49 1.62 1.78 1.92 1.91
1.74 1.67 1.62 1.67 1.73 1.64 1.63 1.71 1.74 1.60 1.54 1.48 1.47 1.46 1.52 1.53 1.54 1.50 1.38 1.31 1.27 1.19 1.08 0.98 0.94 0.89 0.87 0.95 1.06 1.06 1.02 1.05 1.08 1.12 1.18 1.24 1.23 1.27 1.27 1.33 1.43 1.61 1.76
1.75 1.76 1.68 1.55 1.53 1.51 1.52 1.44 1.43 1.39 1.32 1.25 1.22 1.17 1.13 1.12 1.11 1.05 1.00 0.99 0.99 0.96 0.89 0.81 0.75 0.73 0.73 0.79 0.90 0.96 0.95 0.97 0.96 0.93 0.93 0.95 0.99 1.09 1.08 1.11 1.16 1.31 1.50
1.84 1.73 1.66 1.55 1.52 1.40 1.36 1.30 1.25 1.19 1.12 1.11 1.11 1.01 0.94 0.94 0.98 0.95 0.88 0.82 0.82 0.80 0.77 0.73 0.70 0.65 0.67 0.76 0.79 0.80 0.80 0.85 0.84 0.82 0.80 0.79 0.86 0.96 0.99 1.03 1.05 1.14 1.29
2.09 1.84 1.67 1.45 1.33 1.18 1.10 1.08 1.07 1.02 1.00 1.04 1.07 1.03 0.96 0.91 0.87 0.84 0.76 0.70 0.72 0.72 0.69 0.68 0.68 0.68 0.66 0.70 0.69 0.66 0.68 0.74 0.78 0.76 0.73 0.74 0.80 0.84 0.88 0.94 0.98 1.04 1.06
1.68 1.54 1.44 1.26 1.15 1.06 1.03 0.96 0.91 0.90 0.91 0.96 1.05 1.07 1.00 0.92 0.83 0.80 0.81 0.75 0.70 0.67 0.65 0.64 0.63 0.62 0.58 0.61 0.63 0.59 0.64 0.72 0.70 0.65 0.65 0.69 0.68 0.69 0.77 0.81 0.93 1.02 1.10
1.59 1.51 1.43 1.34 1.19 1.06 0.95 0.84 0.80 0.81 0.80 0.88 0.93 0.90 0.86 0.85 0.78 0.74 0.77 0.73 0.70 0.66 0.65 0.61 0.60 0.57 0.53 0.54 0.56 0.52 0.50 0.61 0.63 0.63 0.64 0.62 0.58 0.58 0.63 0.66 0.77 0.93 1.10
1.77 1.68 1.62 1.50 1.30 1.08 0.97 0.90 0.87 0.86 0.82 0.84 0.86 0.78 0.72 0.71 0.67 0.68 0.65 0.60 0.63 0.68 0.67 0.68 0.65 0.59 0.52 0.57 0.55 0.46 0.49 0.57 0.62 0.65 0.66 0.61 0.54 0.51 0.52 0.52 0.59 0.74 0.92
1.88 1.84 1.81 1.70 1.49 1.28 1.18 1.07 1.01 0.88 0.82 0.82 0.78 0.75 0.74 0.71 0.67 0.64 0.64 0.62 0.64 0.68 0.70 0.69 0.69 0.65 0.59 0.60 0.55 0.51 0.52 0.60 0.70 0.74 0.73 0.63 0.53 0.59 0.61 0.59 0.56 0.60 0.68
1.94 1.89 1.80 1.68 1.56 1.42 1.25 1.07 0.94 0.85 0.80 0.79 0.74 0.68 0.69 0.71 0.71 0.74 0.76 0.73 0.69 0.72 0.79 0.79 0.73 0.72 0.67 0.64 0.59 0.55 0.55 0.57 0.65 0.70 0.69 0.74 0.74 0.66 0.62 0.57 0.62 0.71 0.78
1.92 1.86 1.73 1.61 1.53 1.37 1.18 1.01 0.94 0.85 0.80 0.74 0.67 0.62 0.60 0.65 0.67 0.69 0.72 0.73 0.74 0.77 0.81 0.80 0.77 0.77 0.72 0.63 0.58 0.60 0.62 0.58 0.58 0.56 0.56 0.64 0.70 0.64 0.59 0.62 0.72 0.80 0.86
1.89 1.86 1.65 1.47 1.34 1.15 0.98 0.91 0.87 0.81 0.76 0.66 0.58 0.55 0.57 0.61 0.61 0.64 0.68 0.72 0.75 0.76 0.75 0.77 0.79 0.76 0.71 0.57 0.50 0.54 0.56 0.56 0.54 0.57 0.60 0.59 0.55 0.55 0.55 0.64 0.80 0.91 0.88
1.60 1.56 1.43 1.31 1.12 0.93 0.87 0.92 0.82 0.72 0.62 0.54 0.55 0.58 0.61 0.66 0.62 0.65 0.71 0.72 0.71 0.75 0.73 0.70 0.69 0.66 0.56 0.46 0.41 0.41 0.42 0.49 0.52 0.59 0.65 0.63 0.52 0.50 0.49 0.58 0.74 0.87 0.91
1.35 1.28 1.24 1.14 1.01 0.91 0.92 0.98 0.89 0.69 0.58 0.57 0.59 0.60 0.62 0.52 0.50 0.66 0.69 0.65 0.71 0.75 0.67 0.63 0.61 0.56 0.48 0.36 0.30 0.29 0.32 0.38 0.47 0.65 0.64 0.59 0.54 0.46 0.46 0.56 0.75 0.83 1.04
1.15 1.05 0.97 0.97 0.95 0.94 0.96 0.99 0.89 0.71 0.66 0.72 0.71 0.65 0.64 0.62 0.64 0.67 0.64 0.62 0.64 0.60 0.49 0.46 0.47 0.44 0.43 0.39 0.29 0.26 0.29 0.35 0.41 0.57 0.61 0.58 0.56 0.55 0.68 0.77 0.90 1.02 1.23
0.96 0.93 0.90 0.91 0.88 0.84 0.79 0.82 0.74 0.69 0.76 0.80 0.73 0.68 0.69 0.72 0.69 0.62 0.51 0.49 0.46 0.44 0.43 0.40 0.39 0.38 0.37 0.31 0.25 0.25 0.29 0.35 0.40 0.51 0.66 0.75 0.79 0.82 0.92 1.02 1.12 1.22 1.32
0.76 0.79 0.82 0.79 0.72 0.67 0.62 0.61 0.62 0.64 0.78 0.81 0.75 0.68 0.60 0.59 0.59 0.46 0.35 0.35 0.33 0.30 0.36 0.38 0.35 0.35 0.32 0.24 0.24 0.25 0.26 0.34 0.41 0.48 0.69 0.90 0.98 1.05 1.10 1.09 1.14 1.20 1.17
0.62 0.67 0.70 0.66 0.62 0.58 0.57 0.57 0.54 0.54 0.68 0.73 0.68 0.58 0.47 0.43 0.38 0.34 0.33 0.28 0.24 0.26 0.29 0.33 0.30 0.24 0.23 0.20 0.20 0.25 0.29 0.36 0.47 0.55 0.79 0.99 1.04 1.07 1.10 1.06 1.07 1.09 1.05